Insula Oya 2 — FUKI — position and weather

sailwx.info

Track history (hours):
 
Tides and Currents Weather Stations Pressure Air Temp Water Temp Dewpoint Dewpoint Depression Visibility Wind Speed Wind Dir Waves Ship Positions

Insula Oya 2

Last reported at 2014-Jul-22 11:26 UTC. Time now 2014-Jul-22 13:25 UTC.
Position N 46°44' W 002°21'.

Length 50 m; draft 2.5 m.

Type: Passenger vessel. MMSI: 227004900.

Date/timePositionNaut miles runAvg speedWind from/ knotsBaromVisibWave heightAir tempDewpointWater temp
2014-Jul-22 11:26N 46°44' W 002°21'13 2.1
2014-Jul-22 05:17N 46°54' W 002°08'0 0.0
2014-Jul-22 03:14N 46°54' W 002°08'0 0.0
2014-Jul-22 02:11N 46°54' W 002°08'  
2014-Jul-18 18:08N 46°47' W 002°17'3 0.3
2014-Jul-18 09:09N 46°49' W 002°15'7 0.7
2014-Jul-17 23:06N 46°44' W 002°21'0 0.0
2014-Jul-17 20:33N 46°44' W 002°21'8 8.2
2014-Jul-17 19:32N 46°50' W 002°14'4 2.2
2014-Jul-17 17:30N 46°54' W 002°10'1213.2
2014-Jul-17 16:33N 46°44' W 002°21'6 0.7
2014-Jul-17 08:12N 46°49' W 002°16'  
Track history (hours):
 
Tides and Currents Weather Stations Pressure Air Temp Water Temp Dewpoint Dewpoint Depression Visibility Wind Speed Wind Dir Waves Ship Positions

Insula Oya 2

Last reported at 2014-Jul-22 11:26 UTC. Time now 2014-Jul-22 13:25 UTC.
Position N 46°44' W 002°21'.

Length 50 m; draft 2.5 m.

Type: Passenger vessel. MMSI: 227004900.

Date/timePositionNaut miles runAvg speedWind from/ knotsBaromVisibWave heightAir tempDewpointWater temp
2014-Jul-22 11:26N 46°44' W 002°21'13 2.1
2014-Jul-22 05:17N 46°54' W 002°08'0 0.0
2014-Jul-22 03:14N 46°54' W 002°08'0 0.0
2014-Jul-22 02:11N 46°54' W 002°08'  
2014-Jul-18 18:08N 46°47' W 002°17'3 0.3
2014-Jul-18 09:09N 46°49' W 002°15'7 0.7
2014-Jul-17 23:06N 46°44' W 002°21'0 0.0
2014-Jul-17 20:33N 46°44' W 002°21'8 8.2
2014-Jul-17 19:32N 46°50' W 002°14'4 2.2
2014-Jul-17 17:30N 46°54' W 002°10'1213.2
2014-Jul-17 16:33N 46°44' W 002°21'6 0.7
2014-Jul-17 08:12N 46°49' W 002°16'  

Dump ship's entire track history